Location: Kazimierza Ma?a
(50.2611°N, 20.5326°E)
Time: 16:03:11
(UTC+00:00)

Daily predictions for brighter satellites

Satellite Brightness Start Highest point End
(mag) Time Altitude Azimuth Time Altitude Azimuth Time Altitude Azimuth
BREEZE-M (TANK) 3.4 17:46:46 10° W 17:50:01 83° S 18:00:38 10° E
CZ-4C R/B 4.2 17:50:41 10° NW 17:55:36 26° N 18:01:30 10° ENE
CARTOSAT-1 4.0 17:55:58 10° SE 18:00:00 42° ENE 18:04:03 10° N
Cosmos 968 Rocket 3.6 17:58:46 10° NNW 18:03:55 82° WSW 18:09:01 10° SSE
Feng Yun 1-1 Rocket 4.3 17:59:03 10° SSE 18:04:31 71° ENE 18:10:11 10° NNW
Cosmos 2221 Rocket 4.4 18:01:43 10° NNW 18:06:12 58° W 18:10:39 10° S
ADEOS Rocket 4.3 18:01:24 10° SSW 18:06:32 39° W 18:11:41 10° NNW
Timation 1 Rocket 4.5 18:01:42 10° NNW 18:07:42 81° WSW 18:13:39 10° SSE
Cosmos 1346 Rocket 3.0 18:05:55 10° SSE 18:09:34 44° E 18:13:13 10° NNE
Cosmos 1328 3.6 18:06:26 10° N 18:10:12 68° ENE 18:13:58 10° SSE
Meteor 1-16 Rocket 4.2 18:04:39 10° S 18:10:17 80° E 18:15:47 10° NNE
SJ-6B 3.6 18:07:00 10° S 18:10:53 56° W 18:14:49 10° NNW
USA 290 3.7 18:09:38 10° SW 18:12:35 41° WNW 18:15:34 10° NNE
Cosmos 1782 Rocket 3.9 18:08:48 10° SSE 18:12:56 44° E 18:17:07 10° NNE
Cosmos 1300 4.3 18:10:05 10° SW 18:13:27 37° WNW 18:16:49 10° N
SPOT 5 4.2 18:09:32 10° ESE 18:14:01 29° ENE 18:18:29 10° N
NOSS 2-2 (C) 2.9 18:10:55 10° SSW 18:14:03 50° SE 18:17:09 10° NE
Cosmos 2181 Rocket 4.2 18:08:31 10° SSE 18:14:26 51° E 18:20:28 10° NNE
CSL-04 Debris 4.2 18:09:29 10° SSE 18:14:54 78° ENE 18:20:23 10° NNW
Cosmos 1943 Rocket 3.8 18:10:26 10° WSW 18:15:37 39° NW 18:20:54 10° NNE
SL-8 Rocket 4.0 18:10:43 10° N 18:16:58 84° E 18:23:09 10° S
In-Cosmos 22 Rocket 4.4 18:14:14 10° N 18:19:29 51° ENE 18:24:49 10° SSE
Cosmos 1908 Rocket 3.6 18:15:21 10° S 18:19:40 88° WNW 18:24:03 10° N
ERS-1 Rocket 4.4 18:16:45 10° ESE 18:20:29 22° ENE 18:24:16 10° N
CENTAUR R/B 4.4 18:14:48 10° WNW 18:20:56 30° N 18:28:09 10° ENE
Cosmos 2297 3.7 18:16:41 10° SSW 18:22:22 88° ESE 18:28:07 10° NNE
MOS 1-B 4.4 18:17:39 10° SSE 18:23:28 86° WSW 18:29:19 10° NNW
Cosmos 1892 3.4 18:20:08 10° NNW 18:23:38 52° W 18:27:06 10° S
Cosmos 1461 3.3 18:19:42 10° SW 18:23:49 67° NW 18:27:49 10° NE
Cosmos 1331 Rocket 4.3 18:19:44 10° SSW 18:24:57 72° WNW 18:30:15 10° NNE
CSL-04 Rocket 3.7 18:20:01 10° SSE 18:25:33 86° ENE 18:31:04 10° NNW
Cosmos 2297 Rocket 3.9 18:21:47 10° N 18:25:50 20° NE 18:29:52 10° E
USA 234 4.1 18:20:41 10° SSE 18:26:52 44° SW 18:33:05 10° WNW
Cosmos 2341 Rocket 4.2 18:20:45 10° NNW 18:27:05 79° W 18:33:19 10° S
CZ-4 R/B 2.7 18:25:03 10° S 18:28:47 40° W 18:32:29 10° NNW
SL-27 R/B 3.3 18:26:45 10° N 18:29:18 25° ENE 18:30:59 16° ESE
NOSS 3-1 (C) 3.7 18:25:24 10° S 18:29:42 31° ESE 18:34:41 10° NE
SL-4 R/B 1.6 18:27:30 10° WSW 18:31:11 79° SSE 18:34:40 10° ENE
Cosmos 2369 Rocket 2.2 18:26:38 10° SSW 18:32:19 80° ESE 18:37:59 10° NNE
USA 186 2.9 18:34:13 10° S 18:37:09 41° W 18:40:04 10° NNW
Cosmos 1300 Rocket 3.5 18:35:35 10° S 18:39:53 65° E 18:44:16 10° NNE
Cosmos 2263 4.1 18:34:57 10° SSW 18:40:32 70° ESE 18:46:08 10° NNE
Cosmos 1455 2.1 18:37:55 10° SSW 18:41:29 78° W 18:45:05 10° N
Cosmos 371 Rocket 4.5 18:38:27 10° N 18:42:34 28° NE 18:45:33 16° ESE
Cosmos 1992 Rocket 4.3 18:38:35 10° S 18:43:29 43° ESE 18:48:25 10° NE
DELTA 2 DEB (DPAF) 4.1 18:40:13 10° NNE 18:44:29 80° WNW 18:48:42 10° SSW
Cosmos 1833 4.3 18:38:48 10° NNW 18:44:30 81° WSW 18:49:59 11° SSE
CZ-4B R/B 4.1 18:39:33 10° S 18:45:03 52° W 18:50:32 10° NNW
Cosmos 1953 3.1 18:41:22 10° SSW 18:45:06 52° WNW 18:48:52 10° N
SJ 16-02 1.8 18:40:51 10° NNW 18:45:09 59° WSW 18:49:23 10° S
NOSS 2-3 (C) 3.7 18:43:42 10° SW 18:47:22 66° NW 18:51:41 10° NE
Cosmos 2366 rocket 4.4 18:41:13 10° NNW 18:47:32 70° W 18:53:50 10° S
Okean 2 Rocket 4.4 18:45:50 17° ESE 18:47:44 23° E 18:51:16 10° NE
NOSS 2-3 (D) 3.7 18:48:52 10° SW 18:52:32 64° NW 18:56:50 10° NE
ATLAS 3B R/B 3.4 18:47:00 10° S 18:53:10 34° ESE 18:59:42 10° NE
Cosmos 2098 Rocket 3.2 18:48:03 10° S 18:53:16 66° E 18:57:32 10° NNE
Cosmos 2218 Rocket 4.5 18:48:05 10° NNW 18:54:25 65° W 19:00:42 10° S
CZ-4C R/B 2.9 18:54:23 10° NNE 18:57:51 59° ESE 19:01:12 10° S
Terra 2.7 18:55:55 20° ESE 18:58:28 34° ENE 19:02:42 10° N
Nadezhda 3 Rocket 4.1 18:52:53 10° SSE 18:58:46 51° E 19:04:43 10° NNE
USA 281 3.5 18:52:43 10° SSE 18:59:15 69° WSW 19:05:51 10° NNW
USA 129 3.2 18:57:01 10° N 18:59:40 45° WNW 19:02:01 10° SW
Sich 1 Rocket 4.4 19:00:53 23° SE 19:02:39 31° E 19:06:33 10° NNE
NOSS 2-2 (E) 4.4 18:59:45 10° WSW 19:02:42 36° NW 19:05:48 10° NNE
Okean-O 2.7 18:58:42 12° SSE 19:02:49 82° WSW 19:07:15 10° NNW
Cosmos 1821 Rocket 4.0 18:57:06 10° N 19:03:21 89° W 19:09:29 10° S
Iridium 2 4.4 19:02:36 10° NNE 19:05:06 24° ENE 19:05:06 24° ENE
Ariane Rocket 3.6 19:06:32 23° ESE 19:09:11 41° ENE 19:13:54 10° N
SPOT 3 Rocket 4.2 19:11:28 24° ESE 19:14:04 41° ENE 19:18:56 10° N
Cosmos 1486 Rocket 3.9 19:09:57 10° NNW 19:15:13 79° ENE 19:18:20 25° SSE
Cosmos 2344 4.3 19:08:48 10° WSW 19:15:57 53° NNW 19:23:31 10° NE
NOSS 2-2 (D) 4.3 19:13:53 10° WSW 19:16:52 38° NW 19:19:57 10° NNE
USA 245 4.1 19:16:32 23° SSE 19:19:59 63° ENE 19:24:45 10° N
Okean 1 Rocket 3.8 19:24:18 31° ESE 19:24:55 32° E 19:28:53 10° NNE
Okean O Rocket 3.5 19:22:17 10° SSW 19:25:58 27° W 19:29:43 10° NW
Resurs 01 Rocket 3.7 19:27:36 10° SSW 19:31:13 24° W 19:34:52 10° NW
USA 267 3.9 19:25:35 10° ENE 19:31:56 55° NNW 19:38:17 10° W
Iridium 4 Rocket 3.8 19:31:21 29° SSE 19:33:54 55° E 19:39:28 10° N
Landsat 4 3.8 19:37:45 37° SSW 19:38:55 63° WSW 19:42:25 10° NNW
MetOp-A 4.1 19:39:03 33° E 19:39:24 33° ENE 19:42:51 10° N
ATLAS CENTAUR R/B 3.6 19:37:45 10° NNW 19:39:57 15° NNE 19:41:52 11° ENE
Cosmos 2227 Rocket 3.4 19:36:27 10° NNW 19:41:27 31° NE 19:43:56 22° E
SWARM A 4.5 19:40:05 10° N 19:43:37 56° E 19:43:40 56° E
ATLAS 5 CENTAUR R/B 0.8 19:41:10 10° SW 19:44:34 73° SE 19:48:24 10° NE
Cosmos 1339 Rocket 4.4 19:40:44 22° S 19:44:47 70° E 19:50:52 10° NNE
CZ-4C R/B 3.6 19:39:27 10° NW 19:45:42 43° NNE 19:50:56 20° E
Landsat 5 4.2 19:44:43 10° NNE 19:48:24 37° E 19:48:24 37° E
Cosmos 1934 Rocket 3.9 19:43:46 10° N 19:49:56 90° W 19:53:19 29° S
SPOT 5 3.7 19:48:09 20° S 19:51:45 54° W 19:56:58 10° NNW
BREEZE-M R/B 3.4 19:50:29 10° W 19:51:51 29° W 19:51:51 29° W
NOSS 3-1 (A) 3.0 19:52:31 10° SSW 19:57:26 62° SE 20:03:22 10° NE
Cosmos 1536 Rocket 3.9 19:53:40 10° NNW 19:58:01 62° W 19:59:38 36° SSW
ERS-1 Rocket 3.2 19:56:33 32° S 19:58:48 66° WSW 20:03:49 10° NNW
Cosmos 2058 4.4 19:55:46 10° NNE 19:58:42 23° ENE 19:58:42 23° ENE
Cosmos 1697 Rocket 4.5 20:02:11 16° ENE 20:02:11 16° ENE 20:04:07 10° ENE
Cosmos 2151 Rocket 3.8 19:59:50 28° SSW 20:02:02 69° WNW 20:06:28 10° N
SL-27 R/B 4.3 20:00:25 10° WNW 20:02:30 18° WSW 20:02:50 17° WSW
USA 229 DEB 4.4 20:06:44 30° E 20:06:44 30° E 20:11:25 10° NE
ARGOS Delta rocket 4.1 20:04:10 47° SSE 20:05:41 74° ENE 20:11:08 10° N
USA 229 4.4 20:06:53 30° E 20:06:53 30° E 20:11:31 10° NE
COSMOS 2455 3.2 20:00:21 10° NNW 20:06:19 56° NE 20:08:24 38° ESE
Cosmos 1777 Rocket 4.0 20:03:18 10° NNW 20:08:35 76° WSW 20:10:07 47° S
SL-4 R/B 1.9 20:06:32 10° W 20:09:47 64° NNW 20:09:47 64° NNW
Cosmos 2297 Rocket 2.2 20:05:15 10° NNW 20:10:55 72° ENE 20:12:24 49° SE
CENTAUR R/B 3.9 20:06:17 10° NW 20:13:37 45° NNE 20:19:49 19° E
H-2A R/B 4.2 20:15:10 19° NE 20:15:10 19° NE 20:17:23 10° NNE
Cosmos 2369 Rocket 4.5 20:12:20 10° W 20:16:59 25° NW 20:21:38 10° NNE
Cosmos 2219 4.3 20:12:32 10° NNW 20:17:37 32° NE 20:19:22 27° E
Cosmos 1354 Rocket 4.2 20:13:13 10° NNW 20:18:31 67° WSW 20:19:53 48° S
NOSS 3-1 (C) 3.8 20:14:57 10° WSW 20:20:01 58° NW 20:26:14 10° NE
Cosmos 371 Rocket 3.9 20:18:31 10° NNW 20:23:08 48° WSW 20:24:08 41° SW
Okean 2 Rocket 4.1 20:23:04 23° SW 20:25:29 44° WNW 20:29:50 10° N
ARIANE 5 R/B 3.5 20:27:13 37° ENE 20:27:13 37° ENE 20:31:15 10° N
Spot 2 Rocket 4.2 20:26:59 35° SSW 20:28:38 47° W 20:33:32 10° NNW
Cosmos 1892 Rocket 3.4 20:27:28 10° N 20:31:41 83° N 20:31:41 83° N
Terra 3.0 20:34:37 29° SW 20:36:01 35° W 20:40:24 10° NNW
Intercosmos 25 4.2 20:30:59 10° N 20:36:32 48° ENE 20:36:32 48° ENE
Genesis I 4.2 20:35:03 10° NW 20:37:37 40° WNW 20:37:37 40° WNW
Cosmos 1459 Rocket 4.2 20:34:27 10° N 20:40:20 50° ENE 20:41:05 47° E
ATLAS 3B R/B 3.0 20:36:13 10° SW 20:43:23 74° NW 20:51:05 10° NE
Cosmos 1656 3.5 20:44:12 62° SSW 20:45:12 86° ESE 20:50:45 10° NNE
MOS 1 Rocket 3.5 20:45:24 52° W 20:45:24 52° W 20:49:38 10° NNW
Cosmos 2263 Rocket 3.2 20:40:57 10° NNW 20:46:05 35° NE 20:47:19 31° ENE
Ariane Rocket 4.3 20:46:40 27° SW 20:48:13 32° W 20:52:44 10° NNW
Cosmos 1437 Rocket 3.5 20:46:26 10° NNW 20:49:28 51° NW 20:49:28 51° NW
ALOS 2 4.3 20:52:06 23° NE 20:52:06 23° NE 20:55:10 10° N
Cosmos 332 Rocket 3.9 20:49:04 10° NNW 20:53:48 65° WSW 20:53:48 65° WSW
Cosmos 1153 Rocket 4.5 20:49:33 10° NNW 20:55:55 80° W 20:57:10 59° S
Cosmos 2173 Rocket 4.0 20:52:16 10° N 20:58:40 70° ENE 20:59:30 63° SE
Cosmos 405 Rocket 4.0 21:03:02 37° N 21:03:02 37° N 21:05:29 10° N
Cosmos 1763 Rocket 3.5 21:05:17 67° NE 21:05:17 67° NE 21:09:47 10° NNE
Cosmos 1802 Rocket 4.1 20:59:33 10° N 21:05:44 60° ENE 21:06:18 58° E
Meteor 2-13 Rocket 4.3 21:05:54 68° ESE 21:06:15 70° E 21:12:24 10° NNE
Cosmos 1455 Rocket 3.6 21:07:53 56° NW 21:07:53 56° NW 21:11:51 10° N
CZ-2C R/B 4.3 21:03:39 10° NNE 21:07:25 53° NE 21:07:25 53° NE
Cosmos 990 Rocket 4.3 21:06:08 10° NNW 21:11:05 57° W 21:11:05 57° W
USA 267 3.9 21:08:16 11° E 21:14:25 52° N 21:20:44 10° WNW
Cosmos 1864 Rocket 4.5 21:09:38 10° N 21:15:48 63° ENE 21:16:09 62° E
ATLAS CENTAUR R/B 2.8 21:14:45 10° NW 21:16:59 32° NNW 21:16:59 32° NNW
Meteor 2-1 Rocket 4.1 21:22:03 77° NE 21:22:03 77° NE 21:27:17 10° NNE
NOSS 3-2 (A) 4.3 21:17:03 10° NW 21:24:02 59° NE 21:27:19 37° E
Cosmos 2360 4.1 21:24:13 86° WNW 21:24:14 86° WNW 21:29:59 10° NNE
Cosmos 2227 Rocket 2.4 21:20:17 10° NW 21:25:45 62° WSW 21:25:45 62° WSW
Cosmos 1727 Rocket 4.2 21:25:28 56° SW 21:26:39 68° WNW 21:32:55 10° N
Cosmos 2016 Rocket 3.9 21:20:34 10° N 21:26:40 70° ENE 21:26:51 70° E
Cosmos 2100 Rocket 4.0 21:21:20 10° NNW 21:27:42 74° W 21:28:21 68° SW
Cosmos 44 3.7 21:29:00 64° NE 21:29:00 64° NE 21:33:29 10° NE
Cosmos 468 Rocket 4.2 21:29:21 63° NNE 21:29:21 63° NNE 21:33:45 10° NNE
ATLAS 5 CENTAUR R/B 3.6 21:26:03 10° WNW 21:28:59 22° NNW 21:32:16 10° NNE
Cosmos 2228 4.4 21:32:00 33° NNE 21:32:00 33° NNE 21:34:25 10° NNE
H-2A R/B 4.5 21:27:10 10° NE 21:27:56 13° NE 21:27:56 13° NE
Cosmos 1980 Rocket 3.2 21:34:09 35° ENE 21:34:09 35° ENE 21:37:48 10° NE
CZ-4C R/B 2.9 21:27:44 10° NW 21:34:46 75° SW 21:36:02 64° S
Cosmos 540 Rocket 3.7 21:40:01 65° NNW 21:40:01 65° NNW 21:44:32 10° NNE
Cosmos 372 Rocket 4.2 21:34:51 10° NNW 21:39:24 66° NW 21:39:24 66° NW
Cosmos 841 Rocket 4.4 21:43:46 40° NE 21:43:46 40° NE 21:47:14 10° NNE
Cosmos 1697 Rocket 2.7 21:43:51 79° N 21:43:51 79° N 21:49:16 10° NNE
Cosmos 2123 Rocket 3.9 21:44:44 83° ESE 21:44:51 84° E 21:51:13 10° N
H-2A R/B 4.3 21:51:13 24° NW 21:51:13 24° NW 21:52:59 10° NNW
COSMOS 2455 3.8 21:46:38 10° NW 21:51:32 34° WSW 21:51:32 34° WSW
Meteor 2-15 Rocket 4.3 21:45:52 10° NNW 21:52:02 83° W 21:52:02 83° W
Cosmos 2297 Rocket 3.8 21:50:10 10° NW 21:54:12 22° W 21:54:12 22° W
Cosmos 1937 Rocket 4.0 21:50:38 10° NNW 21:55:02 57° WNW 21:55:02 57° WNW
USA 229 DEB 3.8 21:54:04 45° WSW 21:56:04 68° NW 22:03:00 10° NE
USA 229 3.8 21:54:13 46° WSW 21:56:09 69° NW 22:03:06 10° NE
Cosmos 2061 Rocket 3.9 21:53:42 10° N 22:00:11 90° W 22:00:19 87° S
Meteor 2-3 Rocket 4.1 21:54:44 10° NNW 21:59:55 57° W 21:59:55 57° W
Cosmos 1898 Rocket 4.4 21:55:26 10° NW 21:59:29 41° WNW 21:59:29 41° WNW
Cosmos 2219 3.7 21:56:33 10° NW 22:01:16 51° W 22:01:16 51° W
ARIANE 5 R/B 4.4 22:04:41 26° WNW 22:04:41 26° WNW 22:07:31 10° NNW
CENTAUR R/B 3.1 21:56:59 10° NW 22:05:10 82° SW 22:06:56 62° SSE
Cosmos 1725 Rocket 4.2 22:06:26 10° NNW 22:12:27 58° W 22:12:27 58° W
Cosmos 2233 Rocket 3.9 22:13:10 10° NNW 22:19:06 74° WNW 22:19:06 74° WNW
USA 215 4.4 22:15:00 10° ENE 22:18:42 29° E 22:18:42 29° E
Cosmos 2082 4.3 22:18:37 10° NW 22:23:03 49° WNW 22:23:03 49° WNW
Cosmos 2360 Rocket 4.3 22:28:10 15° E 22:28:10 15° E 22:30:12 10° ENE
ALOS 2 4.2 22:29:29 31° NW 22:29:29 31° NW 22:32:03 10° NNW
Cosmos 2263 Rocket 2.9 22:24:48 10° NW 22:28:59 43° WNW 22:28:59 43° WNW
ATLAS 3B R/B 4.4 22:28:42 10° W 22:35:24 35° NNW 22:42:22 10° NE
Lacrosse 4 Rocket 3.9 22:39:06 15° NE 22:39:06 15° NE 22:39:57 10° NE
Cosmos 2322 Rocket 3.9 22:37:45 22° E 22:37:45 22° E 22:40:50 10° NE
NOSS 3-2 (C) 4.1 22:29:20 10° NW 22:36:32 73° NE 22:39:19 45° ESE
Cosmos 1891 Rocket 4.5 22:31:15 10° N 22:37:19 73° ENE 22:37:19 73° ENE
Cosmos 1513 Rocket 4.5 22:34:50 10° N 22:40:47 72° ENE 22:40:47 72° ENE
Cosmos 1844 4.2 22:45:55 10° NNW 22:51:35 55° NE 22:51:55 54° ENE
SL-16 R/B 3.0 22:53:27 41° ENE 22:53:27 41° ENE 22:57:44 10° NE
Cosmos 2058 Rocket 4.5 22:54:51 36° NNE 22:54:51 36° NNE 22:57:29 10° NNE
USA 267 3.2 22:55:32 55° ESE 22:57:09 84° NNE 23:03:44 10° WNW
H-2A R/B 3.6 23:02:15 10° N 23:04:46 32° NNW 23:04:46 32° NNW
Timation 2 Rocket 4.4 22:59:58 10° NNW 23:06:37 61° NE 23:08:05 49° ESE
GEOS 3 Rocket 4.0 23:08:51 59° ENE 23:09:16 61° NE 23:14:30 10° NW
Cosmos 2278 3.8 23:12:42 70° NE 23:12:42 70° NE 23:17:44 10° NNE
Meteor 2-21 4.4 23:14:44 79° E 23:14:44 79° E 23:20:54 10° NNE
NOSS 3-2 (A) 4.3 23:07:54 10° NW 23:14:40 51° WSW 23:14:40 51° WSW
Cosmos 1980 Rocket 3.1 23:15:53 38° WNW 23:16:33 39° NW 23:21:51 10° NNE
Cosmos 1125 Rocket 3.9 23:11:44 10° NNW 23:15:53 57° NNW 23:15:53 57° NNW
Cosmos 1072 Rocket 4.4 23:10:36 10° NNW 23:16:58 77° W 23:16:58 77° W
Cosmos 1844 Rocket 2.8 23:11:29 10° NNW 23:16:26 69° NNW 23:16:26 69° NNW
CZ-2D R/B 4.1 23:18:46 10° NE 23:22:13 17° E 23:23:03 17° E
CZ-4C R/B 4.4 23:17:09 10° WNW 23:21:07 21° W 23:21:07 21° W
Cosmos 2237 4.2 23:31:17 79° NNE 23:31:17 79° NNE 23:36:40 10° NNE
Cosmos 1816 Rocket 4.3 23:31:27 79° ESE 23:31:34 80° E 23:37:42 10° NNE
MOZ.5/SAFIR/RUBIN 5/SL-8 4.5 23:33:38 50° NE 23:33:38 50° NE 23:37:50 10° N
USA 238 DEB 3.8 23:28:44 10° NW 23:36:01 89° NE 23:38:30 48° SE
USA 238 3.8 23:28:50 10° NW 23:36:07 89° NE 23:38:43 46° SE
Cosmos-2242 4.2 23:37:49 41° NNE 23:37:49 41° NNE 23:40:37 10° N
Cosmos 2150 Rocket 4.2 23:38:18 10° NNW 23:42:36 62° NNW 23:42:36 62° NNW
Cosmos 2298 Rocket 4.2 23:38:50 10° NNW 23:43:26 67° NNW 23:43:26 67° NNW
Meteor 2-2 Rocket 4.2 23:50:40 82° SE 23:50:49 82° E 23:56:45 10° NNE
Meteor 1-25 Rocket 4.5 23:46:46 10° NNW 23:51:41 56° WNW 23:51:41 56° WNW
CZ-2C R/B 3.9 23:49:54 25° ESE 23:52:20 37° ENE 23:57:14 10° N
Tsikada Rocket 3.9 23:53:08 69° SE 23:53:44 76° E 23:59:55 10° NNE
